Weather History for Mason City, IA

Change the Weather History Date:

Friday, July 5, 2013

  Actual Average Record
Temperature  
Mean Temperature 74 °F 72 °F  
Max Temperature 89 °F 83 °F 106 °F (1911)
Min Temperature 58 °F 61 °F 42 °F (1967)
Degree Days  
Heating Degree Days 0 0  
Month to date heating degree days 0 0  
Since 1 June heating degree days 53 44  
Since 1 July heating degree days 0 0  
Cooling Degree Days 9 7  
Month to date cooling degree days 28 35  
Year to date cooling degree days 211 208  
Since 1 June cooling degree days 174 173  
Growing Degree Days 24 (Base 50)    
Moisture  
Dew Point 58 °F    
Average Humidity 61    
Maximum Humidity 87    
Minimum Humidity 34    
Precipitation  
Precipitation 0.00 in 0.16 in 3.08 in (2004)
Month to date precipitation 0.00 0.76  
Year to date precipitation 27.85 18.38  
Snow  
Snow 0.00 in 0.00 in - ()
Month to date snowfall 0.0 0.0  
Since 1 June snowfall 0.0 0.0  
Since 1 July snowfall 0.0 0.0  
Snow Depth 0.00 in    
Sea Level Pressure  
Sea Level Pressure 29.92 in    
Wind  
Wind Speed 12 mph (South)    
Max Wind Speed 24 mph    
Max Gust Speed 32 mph    
Visibility 10 miles    
Events      
T = Trace of Precipitation, MM = Missing Value Source: NWS Daily Summary

Daily Weather History Graph

Daily Weather History Graph

Search for Another Location

Airport:

Trip Planner

Search our weather history database for the weather conditions in past years. The results will help you decide how hot, cold, wet, or windy it might be!

Date:

Astronomy

Jul. 05, 2013 Rise Set
Actual Time 5:39 AM CDT 8:55 PM CDT
Civil Twilight 5:04 AM CDT 9:30 PM CDT
Nautical Twilight 4:19 AM CDT 10:15 PM CDT
Astronomical Twilight 3:23 AM CDT 11:11 PM CDT
Moon 3:41 AM CDT (7/5) 6:49 PM CDT (7/5)
Length of Visible Light 16h 25m
Length of Day
15h 15m
Waning Crescent, 6% of the Moon is Illuminated
Jul 5
Waning Crescent
Jul 8
New
Jul 15
First Quarter
Jul 22
Full
Jul 29
Last Quarter

Hourly Weather History & Observations

Time (CDT) Temp. Heat Index Dew Point Humidity Pressure Visibility Wind Dir Wind Speed Gust Speed Precip Events Conditions
12:53 AM 64.9 °F - 57.0 °F 75% 29.95 in 10.0 mi South 8.1 mph - N/A   Clear
1:53 AM 63.0 °F - 55.9 °F 78% 29.95 in 10.0 mi South 5.8 mph - N/A   Clear
2:53 AM 61.0 °F - 55.0 °F 81% 29.95 in 10.0 mi South 5.8 mph - N/A   Clear
3:53 AM 61.0 °F - 55.0 °F 81% 29.95 in 10.0 mi South 6.9 mph - N/A   Clear
4:53 AM 59.0 °F - 55.0 °F 87% 29.95 in 10.0 mi SSE 5.8 mph - N/A   Partly Cloudy
5:53 AM 59.0 °F - 55.0 °F 87% 29.95 in 10.0 mi South 6.9 mph - N/A   Clear
6:53 AM 63.0 °F - 57.0 °F 81% 29.95 in 10.0 mi South 6.9 mph - N/A   Clear
7:53 AM 68.0 °F - 57.0 °F 68% 29.96 in 10.0 mi South 9.2 mph - N/A   Clear
8:53 AM 73.9 °F - 59.0 °F 59% 29.96 in 10.0 mi South 12.7 mph - N/A   Partly Cloudy
9:53 AM 78.1 °F - 57.9 °F 50% 29.94 in 10.0 mi South 16.1 mph - N/A   Clear
10:53 AM 82.0 °F 82.4 °F 60.1 °F 47% 29.93 in 10.0 mi South 18.4 mph 23.0 mph N/A   Clear
11:53 AM 84.9 °F 84.2 °F 57.9 °F 40% 29.91 in 10.0 mi South 20.7 mph 27.6 mph N/A   Clear
12:53 PM 87.1 °F 85.9 °F 57.0 °F 36% 29.91 in 10.0 mi South 16.1 mph 28.8 mph N/A   Clear
1:53 PM 88.0 °F 86.5 °F 55.9 °F 34% 29.90 in 10.0 mi SSW 16.1 mph 27.6 mph N/A   Clear
2:53 PM 86.0 °F 84.7 °F 55.9 °F 36% 29.89 in 10.0 mi South 16.1 mph 26.5 mph N/A   Clear
3:53 PM 84.0 °F 83.3 °F 57.0 °F 40% 29.89 in 10.0 mi South 15.0 mph - N/A   Clear
4:53 PM 82.0 °F 82.0 °F 57.9 °F 44% 29.89 in 10.0 mi South 16.1 mph 21.9 mph N/A   Clear
5:53 PM 81.0 °F 81.6 °F 60.1 °F 49% 29.89 in 10.0 mi South 12.7 mph - N/A   Overcast
6:53 PM 82.9 °F 83.3 °F 61.0 °F 47% 29.88 in 10.0 mi South 18.4 mph 24.2 mph N/A   Mostly Cloudy
7:53 PM 80.1 °F 81.1 °F 61.0 °F 52% 29.88 in 10.0 mi South 16.1 mph - N/A   Clear
8:53 PM 77.0 °F - 60.1 °F 56% 29.88 in 10.0 mi SSE 11.5 mph - N/A   Clear
9:53 PM 73.0 °F - 60.1 °F 64% 29.90 in 10.0 mi South 9.2 mph - N/A   Clear
10:53 PM 72.0 °F - 60.1 °F 66% 29.91 in 10.0 mi SSE 9.2 mph - N/A   Clear
11:53 PM 69.1 °F - 60.1 °F 73% 29.92 in 10.0 mi SSE 5.8 mph - N/A   Clear